Time,TemperatureF,DewpointF,PressureIn,WindDirection,WindDirectionDegrees,WindSpeedMPH,WindSpeedGustMPH,Humidity,HourlyPrecipIn,Conditions,Clouds,dailyrainin,SoftwareType,DateUTC
2013-04-26 00:01:00,58.8,51.6,30.12,ENE,60,0.0,0.0,77,0.00,,SKC,0.00,VWS V13.01,2013-04-26 05:01:00,
2013-04-26 00:06:00,58.8,52.0,30.12,ENE,60,0.0,0.0,78,0.00,,SKC,0.00,VWS V13.01,2013-04-26 05:06:00,
2013-04-26 00:11:00,58.8,51.6,30.12,ENE,60,0.0,0.0,77,0.00,,SKC,0.00,VWS V13.01,2013-04-26 05:11:00,
2013-04-26 00:16:00,58.6,50.8,30.12,ENE,60,0.0,0.0,75,0.00,,SKC,0.00,VWS V13.01,2013-04-26 05:16:00,
2013-04-26 00:21:00,58.5,51.3,30.12,ENE,60,0.0,0.0,77,0.00,,SKC,0.00,VWS V13.01,2013-04-26 05:21:00,
2013-04-26 00:26:00,58.5,51.3,30.12,ENE,60,0.0,0.0,77,0.00,,SKC,0.00,VWS V13.01,2013-04-26 05:26:00,
2013-04-26 00:31:00,58.3,51.5,30.12,ENE,60,0.0,0.0,78,0.00,,SKC,0.00,VWS V13.01,2013-04-26 05:31:00,
2013-04-26 00:36:00,58.3,51.5,30.12,ENE,60,0.0,0.0,78,0.00,,SKC,0.00,VWS V13.01,2013-04-26 05:36:00,
2013-04-26 00:41:00,58.3,51.5,30.12,ENE,60,0.0,0.0,78,0.00,,SKC,0.00,VWS V13.01,2013-04-26 05:41:00,
2013-04-26 00:45:00,58.1,51.6,30.12,ENE,60,0.0,0.0,79,0.00,,SKC,0.00,VWS V13.01,2013-04-26 05:45:00,
2013-04-26 00:50:00,58.1,51.6,30.12,ENE,60,0.0,0.0,79,0.00,,SKC,0.00,VWS V13.01,2013-04-26 05:50:00,
2013-04-26 00:55:00,58.1,51.3,30.12,ENE,60,0.0,0.0,78,0.00,,SKC,0.00,VWS V13.01,2013-04-26 05:55:00,
2013-04-26 01:00:00,57.9,51.1,30.12,ENE,60,0.0,0.0,78,0.00,,SKC,0.00,VWS V13.01,2013-04-26 06:00:00,
2013-04-26 01:05:00,57.9,51.5,30.12,ENE,60,0.0,0.0,79,0.00,,SKC,0.00,VWS V13.01,2013-04-26 06:05:00,
2013-04-26 01:10:00,57.7,51.3,30.12,ENE,60,0.0,0.0,79,0.00,,SKC,0.00,VWS V13.01,2013-04-26 06:10:00,
2013-04-26 01:15:00,57.6,51.1,30.12,ENE,60,0.0,0.0,79,0.00,,SKC,0.00,VWS V13.01,2013-04-26 06:15:00,
2013-04-26 01:20:00,57.6,51.1,30.12,ENE,60,0.0,0.0,79,0.00,,SKC,0.00,VWS V13.01,2013-04-26 06:20:00,
2013-04-26 01:25:00,57.6,51.5,30.12,ENE,60,0.0,0.0,80,0.00,,SKC,0.00,VWS V13.01,2013-04-26 06:25:00,
2013-04-26 01:30:00,57.6,51.5,30.12,ENE,60,0.0,0.0,80,0.00,,SKC,0.00,VWS V13.01,2013-04-26 06:30:00,
2013-04-26 01:35:00,57.4,51.6,30.09,ENE,60,0.0,0.0,81,0.00,,SKC,0.00,VWS V13.01,2013-04-26 06:35:00,
2013-04-26 01:40:00,57.4,51.3,30.09,ENE,60,0.0,0.0,80,0.00,,SKC,0.00,VWS V13.01,2013-04-26 06:40:00,
2013-04-26 01:45:00,57.4,51.3,30.09,ENE,60,0.0,0.0,80,0.00,,SKC,0.00,VWS V13.01,2013-04-26 06:45:00,
2013-04-26 01:50:00,57.2,51.1,30.09,ENE,60,0.0,0.0,80,0.00,,SKC,0.00,VWS V13.01,2013-04-26 06:50:00,
2013-04-26 01:55:00,57.2,50.8,30.09,ENE,60,0.0,0.0,79,0.00,,SKC,0.00,VWS V13.01,2013-04-26 06:55:00,
2013-04-26 02:00:00,57.2,50.8,30.09,ENE,60,0.0,0.0,79,0.00,,SKC,0.00,VWS V13.01,2013-04-26 07:00:00,
2013-04-26 02:05:00,57.0,50.9,30.09,ENE,60,0.0,0.0,80,0.00,,SKC,0.00,VWS V13.01,2013-04-26 07:05:00,
2013-04-26 02:10:00,57.0,50.9,30.09,ENE,60,0.0,0.0,80,0.00,,SKC,0.00,VWS V13.01,2013-04-26 07:10:00,
2013-04-26 02:15:00,56.8,51.1,30.09,ENE,60,0.0,0.0,81,0.00,,SKC,0.00,VWS V13.01,2013-04-26 07:15:00,
2013-04-26 02:20:00,56.8,51.1,30.09,ENE,60,0.0,0.0,81,0.00,,SKC,0.00,VWS V13.01,2013-04-26 07:20:00,
2013-04-26 02:25:00,56.8,51.1,30.09,ENE,60,0.0,0.0,81,0.00,,SKC,0.00,VWS V13.01,2013-04-26 07:25:00,
2013-04-26 02:30:00,56.7,51.6,30.09,ENE,60,0.0,0.0,83,0.00,,SKC,0.00,VWS V13.01,2013-04-26 07:30:00,
2013-04-26 02:35:00,56.7,51.6,30.09,ENE,60,0.0,0.0,83,0.00,,SKC,0.00,VWS V13.01,2013-04-26 07:35:00,
2013-04-26 02:40:00,56.5,51.4,30.09,ENE,60,0.0,0.0,83,0.00,,SKC,0.00,VWS V13.01,2013-04-26 07:40:00,
2013-04-26 02:45:00,56.5,51.4,30.09,ENE,60,0.0,0.0,83,0.00,,SKC,0.00,VWS V13.01,2013-04-26 07:45:00,
2013-04-26 02:50:00,56.3,50.9,30.09,ENE,60,0.0,0.0,82,0.00,,SKC,0.00,VWS V13.01,2013-04-26 07:50:00,
2013-04-26 02:55:00,56.3,50.9,30.09,ENE,60,0.0,0.0,82,0.00,,SKC,0.00,VWS V13.01,2013-04-26 07:55:00,
2013-04-26 03:00:00,56.3,50.9,30.09,ENE,60,0.0,0.0,82,0.00,,SKC,0.00,VWS V13.01,2013-04-26 08:00:00,
2013-04-26 03:05:00,56.1,51.0,30.09,ENE,60,0.0,0.0,83,0.00,,SKC,0.00,VWS V13.01,2013-04-26 08:05:00,
2013-04-26 03:10:00,56.1,51.0,30.09,ENE,60,0.0,0.0,83,0.00,,SKC,0.00,VWS V13.01,2013-04-26 08:10:00,
2013-04-26 03:15:00,55.9,50.5,30.09,ENE,60,0.0,0.0,82,0.00,,SKC,0.00,VWS V13.01,2013-04-26 08:15:00,
2013-04-26 03:20:00,55.9,50.5,30.09,ENE,60,0.0,0.0,82,0.00,,SKC,0.00,VWS V13.01,2013-04-26 08:20:00,
2013-04-26 03:25:00,55.9,50.5,30.09,ENE,60,0.0,0.0,82,0.00,,SKC,0.00,VWS V13.01,2013-04-26 08:25:00,
2013-04-26 03:30:00,55.8,50.4,30.09,ENE,60,0.0,0.0,82,0.00,,SKC,0.00,VWS V13.01,2013-04-26 08:30:00,
2013-04-26 03:35:00,55.8,50.4,30.09,ENE,60,0.0,0.0,82,0.00,,SKC,0.00,VWS V13.01,2013-04-26 08:35:00,
2013-04-26 03:40:00,55.6,50.5,30.09,ENE,60,0.0,0.0,83,0.00,,SKC,0.00,VWS V13.01,2013-04-26 08:40:00,
2013-04-26 03:45:00,55.4,50.7,30.09,ENE,60,0.0,0.0,84,0.00,,SKC,0.00,VWS V13.01,2013-04-26 08:45:00,
2013-04-26 03:50:00,55.4,51.0,30.09,ENE,60,0.0,0.0,85,0.00,,SKC,0.00,VWS V13.01,2013-04-26 08:50:00,
2013-04-26 03:55:00,55.4,51.0,30.09,ENE,60,0.0,0.0,85,0.00,,SKC,0.00,VWS V13.01,2013-04-26 08:55:00,
2013-04-26 04:00:00,55.4,51.0,30.09,ENE,60,0.0,0.0,85,0.00,,SKC,0.00,VWS V13.01,2013-04-26 09:00:00,
2013-04-26 04:05:00,55.0,50.6,30.09,ENE,60,0.0,0.0,85,0.00,,SKC,0.00,VWS V13.01,2013-04-26 09:05:00,
2013-04-26 04:10:00,54.9,50.4,30.09,ENE,60,0.0,0.0,85,0.00,,SKC,0.00,VWS V13.01,2013-04-26 09:10:00,
2013-04-26 04:15:00,54.9,50.8,30.09,ENE,60,0.0,0.0,86,0.00,,SKC,0.00,VWS V13.01,2013-04-26 09:15:00,
2013-04-26 04:20:00,54.9,50.4,30.09,ENE,60,0.0,0.0,85,0.00,,SKC,0.00,VWS V13.01,2013-04-26 09:20:00,
2013-04-26 04:25:00,54.7,50.6,30.09,ENE,60,0.0,0.0,86,0.00,,SKC,0.00,VWS V13.01,2013-04-26 09:25:00,
2013-04-26 04:30:00,54.9,51.1,30.09,ENE,60,0.0,0.0,87,0.00,,SKC,0.00,VWS V13.01,2013-04-26 09:30:00,
2013-04-26 04:35:00,54.7,50.3,30.09,ENE,60,0.0,0.0,85,0.00,,SKC,0.00,VWS V13.01,2013-04-26 09:35:00,
2013-04-26 04:40:00,54.9,50.8,30.09,ENE,60,0.0,0.0,86,0.00,,SKC,0.00,VWS V13.01,2013-04-26 09:40:00,
2013-04-26 04:45:00,54.9,50.8,30.09,ENE,60,0.0,0.0,86,0.00,,SKC,0.00,VWS V13.01,2013-04-26 09:45:00,
2013-04-26 04:50:00,54.7,50.3,30.09,ENE,60,0.0,0.0,85,0.00,,SKC,0.00,VWS V13.01,2013-04-26 09:50:00,
2013-04-26 04:55:00,54.7,50.0,30.09,ENE,60,0.0,0.0,84,0.00,,SKC,0.00,VWS V13.01,2013-04-26 09:55:00,
2013-04-26 05:00:00,54.7,50.3,30.09,ENE,60,0.0,0.0,85,0.00,,SKC,0.00,VWS V13.01,2013-04-26 10:00:00,
2013-04-26 05:05:00,54.7,50.3,30.09,ENE,60,0.0,0.0,85,0.00,,SKC,0.00,VWS V13.01,2013-04-26 10:05:00,
2013-04-26 05:10:00,54.5,49.8,30.09,ENE,60,0.0,0.0,84,0.00,,SKC,0.00,VWS V13.01,2013-04-26 10:10:00,
2013-04-26 05:15:00,54.5,49.8,30.09,ENE,60,0.0,0.0,84,0.00,,SKC,0.00,VWS V13.01,2013-04-26 10:15:00,
2013-04-26 05:20:00,54.5,50.1,30.09,ENE,60,0.0,0.0,85,0.00,,SKC,0.00,VWS V13.01,2013-04-26 10:20:00,
2013-04-26 05:25:00,54.5,49.8,30.09,ENE,60,0.0,0.0,84,0.00,,SKC,0.00,VWS V13.01,2013-04-26 10:25:00,
2013-04-26 05:30:00,54.5,49.5,30.09,ENE,60,0.0,0.0,83,0.00,,SKC,0.00,VWS V13.01,2013-04-26 10:30:00,
2013-04-26 05:35:00,54.5,49.5,30.09,ENE,60,0.0,0.0,83,0.00,,SKC,0.00,VWS V13.01,2013-04-26 10:35:00,
2013-04-26 05:40:00,54.3,49.6,30.09,ENE,60,0.0,0.0,84,0.00,,SKC,0.00,VWS V13.01,2013-04-26 10:40:00,
2013-04-26 05:45:00,54.3,49.3,30.09,ENE,60,0.0,0.0,83,0.00,,SKC,0.00,VWS V13.01,2013-04-26 10:45:00,
2013-04-26 05:50:00,54.1,49.4,30.12,ENE,60,0.0,0.0,84,0.00,,SKC,0.00,VWS V13.01,2013-04-26 10:50:00,
2013-04-26 05:55:00,54.3,49.9,30.12,ENE,60,0.0,0.0,85,0.00,,SKC,0.00,VWS V13.01,2013-04-26 10:55:00,
2013-04-26 06:00:00,54.3,50.2,30.12,ENE,60,0.0,0.0,86,0.00,,SKC,0.00,VWS V13.01,2013-04-26 11:00:00,
2013-04-26 06:05:00,54.3,50.8,30.12,ENE,60,0.0,0.0,88,0.00,,SKC,0.00,VWS V13.01,2013-04-26 11:05:00,
2013-04-26 06:10:00,54.3,50.8,30.12,ENE,60,0.0,0.0,88,0.00,,SKC,0.00,VWS V13.01,2013-04-26 11:10:00,
2013-04-26 06:15:00,54.3,51.2,30.12,ENE,60,0.0,0.0,89,0.00,,SKC,0.00,VWS V13.01,2013-04-26 11:15:00,
2013-04-26 06:20:00,54.5,51.0,30.12,ENE,60,0.0,0.0,88,0.00,,SKC,0.00,VWS V13.01,2013-04-26 11:20:00,
2013-04-26 06:25:00,54.7,51.5,30.12,ENE,60,0.0,0.0,89,0.00,,SKC,0.00,VWS V13.01,2013-04-26 11:25:00,
2013-04-26 06:30:00,55.0,50.6,30.12,ENE,60,0.0,0.0,85,0.00,,SKC,0.00,VWS V13.01,2013-04-26 11:30:00,
2013-04-26 06:35:00,55.4,51.3,30.12,ENE,60,0.0,0.0,86,0.00,,SKC,0.00,VWS V13.01,2013-04-26 11:35:00,
2013-04-26 06:40:00,55.8,51.3,30.12,ENE,60,0.0,0.0,85,0.00,,SKC,0.00,VWS V13.01,2013-04-26 11:40:00,
2013-04-26 06:45:00,56.1,49.7,30.12,ENE,60,0.0,0.0,79,0.00,,SKC,0.00,VWS V13.01,2013-04-26 11:45:00,
2013-04-26 06:50:00,56.7,47.8,30.12,ENE,60,0.0,0.0,72,0.00,,SKC,0.00,VWS V13.01,2013-04-26 11:50:00,
2013-04-26 06:55:00,57.2,47.5,30.12,ENE,60,0.0,0.0,70,0.00,,SKC,0.00,VWS V13.01,2013-04-26 11:55:00,
2013-04-26 07:00:00,57.6,47.5,30.12,ENE,60,0.0,0.0,69,0.00,,SKC,0.00,VWS V13.01,2013-04-26 12:00:00,
2013-04-26 07:05:00,57.9,48.2,30.12,ENE,60,0.0,0.0,70,0.00,,SKC,0.00,VWS V13.01,2013-04-26 12:05:00,
2013-04-26 07:09:00,58.1,48.0,30.12,ENE,60,0.0,0.0,69,0.00,,SKC,0.00,VWS V13.01,2013-04-26 12:09:00,
2013-04-26 07:14:00,58.3,48.5,30.12,ENE,60,0.0,0.0,70,0.00,,SKC,0.00,VWS V13.01,2013-04-26 12:14:00,
2013-04-26 07:19:00,58.3,48.2,30.12,ENE,60,0.0,0.0,69,0.00,,SKC,0.00,VWS V13.01,2013-04-26 12:19:00,
2013-04-26 07:24:00,58.8,49.1,30.12,ENE,60,0.0,0.0,70,0.00,,SKC,0.00,VWS V13.01,2013-04-26 12:24:00,
2013-04-26 07:29:00,59.2,49.0,30.12,ENE,60,0.0,0.0,69,0.00,,SKC,0.00,VWS V13.01,2013-04-26 12:29:00,
2013-04-26 07:34:00,59.9,49.3,30.15,ENE,60,0.0,0.0,68,0.00,,SKC,0.00,VWS V13.01,2013-04-26 12:34:00,
2013-04-26 07:39:00,60.4,49.8,30.15,ENE,60,0.0,0.0,68,0.00,,SKC,0.00,VWS V13.01,2013-04-26 12:39:00,
2013-04-26 07:44:00,61.0,48.3,30.15,ENE,60,0.0,0.0,63,0.00,,SKC,0.00,VWS V13.01,2013-04-26 12:44:00,
2013-04-26 07:49:00,61.7,49.8,30.12,ENE,60,0.0,0.0,65,0.00,,SKC,0.00,VWS V13.01,2013-04-26 12:49:00,
2013-04-26 07:54:00,62.2,49.5,30.12,ENE,60,0.0,0.0,63,0.00,,SKC,0.00,VWS V13.01,2013-04-26 12:54:00,
2013-04-26 07:59:00,62.4,49.7,30.12,ENE,60,0.0,0.0,63,0.00,,SKC,0.00,VWS V13.01,2013-04-26 12:59:00,
2013-04-26 08:04:00,63.1,49.9,30.12,ENE,60,0.0,0.0,62,0.00,,SKC,0.00,VWS V13.01,2013-04-26 13:04:00,
2013-04-26 08:09:00,63.9,50.6,30.12,ENE,60,0.0,0.0,62,0.00,,SKC,0.00,VWS V13.01,2013-04-26 13:09:00,
2013-04-26 08:14:00,64.4,51.1,30.12,ENE,60,0.0,0.0,62,0.00,,SKC,0.00,VWS V13.01,2013-04-26 13:14:00,
2013-04-26 08:19:00,65.1,51.8,30.12,ENE,60,0.0,0.0,62,0.00,,SKC,0.00,VWS V13.01,2013-04-26 13:19:00,
2013-04-26 08:24:00,65.8,52.5,30.12,ENE,60,0.0,0.0,62,0.00,,SKC,0.00,VWS V13.01,2013-04-26 13:24:00,
2013-04-26 08:29:00,66.0,52.6,30.12,ENE,60,0.0,0.0,62,0.00,,SKC,0.00,VWS V13.01,2013-04-26 13:29:00,
2013-04-26 08:34:00,66.0,52.6,30.15,ENE,60,0.0,0.0,62,0.00,,SKC,0.00,VWS V13.01,2013-04-26 13:34:00,
2013-04-26 08:39:00,66.0,52.6,30.15,ENE,60,0.0,0.0,62,0.00,,SKC,0.00,VWS V13.01,2013-04-26 13:39:00,
2013-04-26 08:44:00,66.7,52.9,30.15,ENE,60,0.0,0.0,61,0.00,,SKC,0.00,VWS V13.01,2013-04-26 13:44:00,
2013-04-26 08:49:00,67.6,53.7,30.15,ENE,60,0.0,0.0,61,0.00,,SKC,0.00,VWS V13.01,2013-04-26 13:49:00,
2013-04-26 08:54:00,68.2,54.2,30.15,ENE,60,0.0,0.0,61,0.00,,SKC,0.00,VWS V13.01,2013-04-26 13:54:00,
2013-04-26 08:59:00,68.4,54.4,30.15,ENE,60,0.0,0.0,61,0.00,,SKC,0.00,VWS V13.01,2013-04-26 13:59:00,
2013-04-26 09:04:00,68.5,54.6,30.15,ENE,60,0.0,0.0,61,0.00,,SKC,0.00,VWS V13.01,2013-04-26 14:04:00,
2013-04-26 09:09:00,69.3,55.2,30.15,ENE,60,0.0,0.0,61,0.00,,SKC,0.00,VWS V13.01,2013-04-26 14:09:00,
2013-04-26 09:14:00,70.0,55.9,30.15,ENE,60,0.0,0.0,61,0.00,,SKC,0.00,VWS V13.01,2013-04-26 14:14:00,
2013-04-26 09:19:00,70.7,56.6,30.15,ENE,60,0.0,0.0,61,0.00,,SKC,0.00,VWS V13.01,2013-04-26 14:19:00,
2013-04-26 09:24:00,71.2,57.1,30.15,ENE,60,0.0,0.0,61,0.00,,SKC,0.00,VWS V13.01,2013-04-26 14:24:00,
2013-04-26 09:29:00,72.0,57.3,30.15,ENE,60,0.0,0.0,60,0.00,,SKC,0.00,VWS V13.01,2013-04-26 14:29:00,
2013-04-26 09:34:00,72.5,57.8,30.15,ENE,60,0.0,0.0,60,0.00,,SKC,0.00,VWS V13.01,2013-04-26 14:34:00,
2013-04-26 09:39:00,72.9,58.2,30.15,ENE,60,0.0,0.0,60,0.00,,SKC,0.00,VWS V13.01,2013-04-26 14:39:00,
2013-04-26 09:44:00,72.9,58.2,30.15,ENE,60,0.0,0.0,60,0.00,,SKC,0.00,VWS V13.01,2013-04-26 14:44:00,
2013-04-26 09:49:00,72.5,57.8,30.15,ENE,60,0.0,0.0,60,0.00,,SKC,0.00,VWS V13.01,2013-04-26 14:49:00,
2013-04-26 09:54:00,73.2,58.5,30.15,ENE,60,0.0,0.0,60,0.00,,SKC,0.00,VWS V13.01,2013-04-26 14:54:00,
2013-04-26 09:59:00,73.9,59.2,30.15,ENE,60,0.0,0.0,60,0.00,,SKC,0.00,VWS V13.01,2013-04-26 14:59:00,
2013-04-26 10:04:00,74.3,59.5,30.15,ENE,60,0.0,0.0,60,0.00,,SKC,0.00,VWS V13.01,2013-04-26 15:04:00,
2013-04-26 10:09:00,74.7,59.9,30.15,ENE,60,0.0,0.0,60,0.00,,SKC,0.00,VWS V13.01,2013-04-26 15:09:00,
2013-04-26 10:14:00,74.7,59.9,30.15,ENE,60,0.0,0.0,60,0.00,,SKC,0.00,VWS V13.01,2013-04-26 15:14:00,
2013-04-26 10:19:00,74.7,59.9,30.15,ENE,60,0.0,0.0,60,0.00,,SKC,0.00,VWS V13.01,2013-04-26 15:19:00,
2013-04-26 10:24:00,75.2,59.9,30.15,ENE,60,0.0,0.0,59,0.00,,SKC,0.00,VWS V13.01,2013-04-26 15:24:00,
2013-04-26 10:29:00,75.9,60.6,30.15,ENE,60,0.0,0.0,59,0.00,,SKC,0.00,VWS V13.01,2013-04-26 15:29:00,
2013-04-26 10:34:00,76.1,60.8,30.15,ENE,60,0.0,0.0,59,0.00,,SKC,0.00,VWS V13.01,2013-04-26 15:34:00,
2013-04-26 10:39:00,76.1,60.8,30.15,ENE,60,0.0,0.0,59,0.00,,SKC,0.00,VWS V13.01,2013-04-26 15:39:00,
2013-04-26 10:44:00,75.9,60.6,30.15,ENE,60,0.0,0.0,59,0.00,,SKC,0.00,VWS V13.01,2013-04-26 15:44:00,
2013-04-26 10:49:00,76.3,60.9,30.15,ENE,60,0.0,0.0,59,0.00,,SKC,0.00,VWS V13.01,2013-04-26 15:49:00,
2013-04-26 10:54:00,75.9,60.6,30.15,ENE,60,0.0,0.0,59,0.00,,SKC,0.00,VWS V13.01,2013-04-26 15:54:00,
2013-04-26 10:59:00,76.1,60.8,30.15,ENE,60,0.0,0.0,59,0.00,,SKC,0.00,VWS V13.01,2013-04-26 15:59:00,
2013-04-26 11:04:00,76.6,61.2,30.15,ENE,60,0.0,0.0,59,0.00,,SKC,0.00,VWS V13.01,2013-04-26 16:04:00,
2013-04-26 11:09:00,77.0,61.6,30.15,ENE,60,0.0,0.0,59,0.00,,SKC,0.00,VWS V13.01,2013-04-26 16:09:00,
2013-04-26 11:14:00,76.6,61.2,30.15,ENE,60,0.0,0.0,59,0.00,,SKC,0.00,VWS V13.01,2013-04-26 16:14:00,
2013-04-26 11:19:00,76.8,61.4,30.15,ENE,60,0.0,0.0,59,0.00,,SKC,0.00,VWS V13.01,2013-04-26 16:19:00,
2013-04-26 11:24:00,77.4,61.9,30.15,ENE,60,0.0,0.0,59,0.00,,SKC,0.00,VWS V13.01,2013-04-26 16:24:00,
2013-04-26 11:29:00,77.2,61.8,30.15,ENE,60,0.0,0.0,59,0.00,,SKC,0.00,VWS V13.01,2013-04-26 16:29:00,
2013-04-26 11:34:00,77.4,61.9,30.15,ENE,60,0.0,0.0,59,0.00,,SKC,0.00,VWS V13.01,2013-04-26 16:34:00,
2013-04-26 11:39:00,77.7,62.3,30.15,ENE,60,0.0,0.0,59,0.00,,SKC,0.00,VWS V13.01,2013-04-26 16:39:00,
2013-04-26 11:44:00,78.1,62.6,30.15,ENE,60,0.0,0.0,59,0.00,,SKC,0.00,VWS V13.01,2013-04-26 16:44:00,
2013-04-26 11:49:00,77.0,61.6,30.15,ENE,60,0.0,0.0,59,0.00,,SKC,0.00,VWS V13.01,2013-04-26 16:49:00,
2013-04-26 11:54:00,76.6,61.2,30.15,ENE,60,0.0,0.0,59,0.00,,SKC,0.00,VWS V13.01,2013-04-26 16:54:00,
2013-04-26 11:59:00,76.5,61.1,30.15,ENE,60,0.0,0.0,59,0.00,,SKC,0.00,VWS V13.01,2013-04-26 16:59:00,
2013-04-26 12:04:00,77.2,61.8,30.15,ENE,60,0.0,0.0,59,0.00,,SKC,0.00,VWS V13.01,2013-04-26 17:04:00,
2013-04-26 12:09:00,77.0,61.6,30.15,ENE,60,0.0,0.0,59,0.00,,SKC,0.00,VWS V13.01,2013-04-26 17:09:00,
2013-04-26 12:14:00,76.6,61.2,30.15,ENE,60,0.0,0.0,59,0.00,,SKC,0.00,VWS V13.01,2013-04-26 17:14:00,
2013-04-26 12:19:00,77.0,61.6,30.15,ENE,60,0.0,0.0,59,0.00,,SKC,0.00,VWS V13.01,2013-04-26 17:19:00,
2013-04-26 12:24:00,77.4,61.9,30.15,ENE,60,0.0,0.0,59,0.00,,SKC,0.00,VWS V13.01,2013-04-26 17:24:00,
2013-04-26 12:29:00,77.7,62.3,30.15,ENE,60,0.0,0.0,59,0.00,,SKC,0.00,VWS V13.01,2013-04-26 17:29:00,
2013-04-26 12:34:00,78.4,62.9,30.15,ENE,60,0.0,0.0,59,0.00,,SKC,0.00,VWS V13.01,2013-04-26 17:34:00,
2013-04-26 12:39:00,78.4,62.9,30.15,ENE,60,0.0,0.0,59,0.00,,SKC,0.00,VWS V13.01,2013-04-26 17:39:00,
2013-04-26 12:44:00,77.7,62.3,30.15,ENE,60,0.0,0.0,59,0.00,,SKC,0.00,VWS V13.01,2013-04-26 17:44:00,
2013-04-26 12:49:00,77.2,61.8,30.15,ENE,60,0.0,0.0,59,0.00,,SKC,0.00,VWS V13.01,2013-04-26 17:49:00,
2013-04-26 12:54:00,76.8,61.4,30.15,ENE,60,0.0,0.0,59,0.00,,SKC,0.00,VWS V13.01,2013-04-26 17:54:00,
2013-04-26 12:59:00,76.8,61.4,30.15,ENE,60,0.0,0.0,59,0.00,,SKC,0.00,VWS V13.01,2013-04-26 17:59:00,
2013-04-26 13:03:00,77.2,61.8,30.15,ENE,60,0.0,0.0,59,0.00,,SKC,0.00,VWS V13.01,2013-04-26 18:03:00,
2013-04-26 13:08:00,77.2,61.8,30.15,ENE,60,0.0,0.0,59,0.00,,SKC,0.00,VWS V13.01,2013-04-26 18:08:00,
2013-04-26 13:13:00,76.8,61.4,30.15,ENE,60,0.0,0.0,59,0.00,,SKC,0.00,VWS V13.01,2013-04-26 18:13:00,
2013-04-26 13:18:00,76.6,61.2,30.15,ENE,60,0.0,0.0,59,0.00,,SKC,0.00,VWS V13.01,2013-04-26 18:18:00,
2013-04-26 13:23:00,76.6,61.2,30.15,ENE,60,0.0,0.0,59,0.00,,SKC,0.00,VWS V13.01,2013-04-26 18:23:00,
2013-04-26 13:28:00,76.5,61.1,30.15,ENE,60,0.0,0.0,59,0.00,,SKC,0.00,VWS V13.01,2013-04-26 18:28:00,
2013-04-26 13:33:00,76.3,60.9,30.12,ENE,60,0.0,0.0,59,0.00,,SKC,0.00,VWS V13.01,2013-04-26 18:33:00,
2013-04-26 13:38:00,76.1,60.8,30.12,ENE,60,0.0,0.0,59,0.00,,SKC,0.00,VWS V13.01,2013-04-26 18:38:00,
2013-04-26 13:43:00,75.9,60.6,30.12,ENE,60,0.0,0.0,59,0.00,,SKC,0.00,VWS V13.01,2013-04-26 18:43:00,
2013-04-26 13:48:00,75.9,60.6,30.12,ENE,60,0.0,0.0,59,0.00,,SKC,0.00,VWS V13.01,2013-04-26 18:48:00,
2013-04-26 13:53:00,75.0,60.2,30.12,ENE,60,0.0,0.0,60,0.00,,SKC,0.00,VWS V13.01,2013-04-26 18:53:00,
2013-04-26 13:58:00,74.8,60.0,30.12,ENE,60,0.0,0.0,60,0.00,,SKC,0.00,VWS V13.01,2013-04-26 18:58:00,
2013-04-26 14:03:00,74.7,59.9,30.12,ENE,60,0.0,0.0,60,0.00,,SKC,0.00,VWS V13.01,2013-04-26 19:03:00,
2013-04-26 14:08:00,74.8,60.0,30.12,ENE,60,0.0,0.0,60,0.00,,SKC,0.00,VWS V13.01,2013-04-26 19:08:00,
2013-04-26 14:13:00,75.0,60.2,30.12,ENE,60,0.0,0.0,60,0.00,,SKC,0.00,VWS V13.01,2013-04-26 19:13:00,
2013-04-26 14:18:00,74.8,60.0,30.12,ENE,60,0.0,0.0,60,0.00,,SKC,0.00,VWS V13.01,2013-04-26 19:18:00,
2013-04-26 14:23:00,74.8,60.0,30.12,ENE,60,0.0,0.0,60,0.00,,SKC,0.00,VWS V13.01,2013-04-26 19:23:00,
2013-04-26 14:28:00,75.0,60.2,30.12,ENE,60,0.0,0.0,60,0.00,,SKC,0.00,VWS V13.01,2013-04-26 19:28:00,
2013-04-26 14:33:00,75.2,59.9,30.12,ENE,60,0.0,0.0,59,0.00,,SKC,0.00,VWS V13.01,2013-04-26 19:33:00,
2013-04-26 14:38:00,75.4,60.1,30.12,ENE,60,0.0,0.0,59,0.00,,SKC,0.00,VWS V13.01,2013-04-26 19:38:00,
2013-04-26 14:43:00,75.2,59.9,30.12,ENE,60,0.0,0.0,59,0.00,,SKC,0.00,VWS V13.01,2013-04-26 19:43:00,
2013-04-26 14:48:00,75.4,60.1,30.12,ENE,60,0.0,0.0,59,0.00,,SKC,0.00,VWS V13.01,2013-04-26 19:48:00,
2013-04-26 14:53:00,75.2,59.9,30.12,ENE,60,0.0,0.0,59,0.00,,SKC,0.00,VWS V13.01,2013-04-26 19:53:00,
2013-04-26 14:58:00,75.0,60.2,30.12,ENE,60,0.0,0.0,60,0.00,,SKC,0.00,VWS V13.01,2013-04-26 19:58:00,
2013-04-26 15:03:00,75.0,60.2,30.12,ENE,60,0.0,0.0,60,0.00,,SKC,0.00,VWS V13.01,2013-04-26 20:03:00,
2013-04-26 15:08:00,75.0,60.2,30.12,ENE,60,0.0,0.0,60,0.00,,SKC,0.00,VWS V13.01,2013-04-26 20:08:00,
2013-04-26 15:13:00,75.2,59.9,30.12,ENE,60,0.0,0.0,59,0.00,,SKC,0.00,VWS V13.01,2013-04-26 20:13:00,
2013-04-26 15:18:00,75.0,60.2,30.12,ENE,60,0.0,0.0,60,0.00,,SKC,0.00,VWS V13.01,2013-04-26 20:18:00,
2013-04-26 15:23:00,75.2,59.9,30.12,ENE,60,0.0,0.0,59,0.00,,SKC,0.00,VWS V13.01,2013-04-26 20:23:00,
2013-04-26 15:28:00,75.2,59.9,30.12,ENE,60,0.0,0.0,59,0.00,,SKC,0.00,VWS V13.01,2013-04-26 20:28:00,
2013-04-26 15:33:00,74.7,59.9,30.12,ENE,60,0.0,0.0,60,0.00,,SKC,0.00,VWS V13.01,2013-04-26 20:33:00,
2013-04-26 15:38:00,74.3,59.5,30.12,ENE,60,0.0,0.0,60,0.00,,SKC,0.00,VWS V13.01,2013-04-26 20:38:00,
2013-04-26 15:43:00,74.5,59.7,30.12,ENE,60,0.0,0.0,60,0.00,,SKC,0.00,VWS V13.01,2013-04-26 20:43:00,
2013-04-26 15:48:00,74.5,59.7,30.09,ENE,60,0.0,0.0,60,0.00,,SKC,0.00,VWS V13.01,2013-04-26 20:48:00,
2013-04-26 15:53:00,74.7,59.9,30.09,ENE,60,0.0,0.0,60,0.00,,SKC,0.00,VWS V13.01,2013-04-26 20:53:00,
2013-04-26 15:58:00,74.8,60.0,30.09,ENE,60,0.0,0.0,60,0.00,,SKC,0.00,VWS V13.01,2013-04-26 20:58:00,
2013-04-26 16:03:00,74.7,59.9,30.09,ENE,60,0.0,0.0,60,0.00,,SKC,0.00,VWS V13.01,2013-04-26 21:03:00,
2013-04-26 16:08:00,74.5,59.7,30.09,ENE,60,0.0,0.0,60,0.00,,SKC,0.00,VWS V13.01,2013-04-26 21:08:00,
2013-04-26 16:13:00,74.3,59.5,30.09,ENE,60,0.0,0.0,60,0.00,,SKC,0.00,VWS V13.01,2013-04-26 21:13:00,
2013-04-26 16:18:00,74.1,59.4,30.09,ENE,60,0.0,0.0,60,0.00,,SKC,0.00,VWS V13.01,2013-04-26 21:18:00,
2013-04-26 16:23:00,74.3,59.5,30.09,ENE,60,0.0,0.0,60,0.00,,SKC,0.00,VWS V13.01,2013-04-26 21:23:00,
2013-04-26 16:28:00,74.5,59.7,30.09,ENE,60,0.0,0.0,60,0.00,,SKC,0.00,VWS V13.01,2013-04-26 21:28:00,
2013-04-26 16:33:00,74.5,59.7,30.09,ENE,60,0.0,0.0,60,0.00,,SKC,0.00,VWS V13.01,2013-04-26 21:33:00,
2013-04-26 16:38:00,74.5,59.7,30.09,ENE,60,0.0,0.0,60,0.00,,SKC,0.00,VWS V13.01,2013-04-26 21:38:00,
2013-04-26 16:43:00,74.5,59.7,30.09,ENE,60,0.0,0.0,60,0.00,,SKC,0.00,VWS V13.01,2013-04-26 21:43:00,
2013-04-26 16:48:00,74.3,59.5,30.09,ENE,60,0.0,0.0,60,0.00,,SKC,0.00,VWS V13.01,2013-04-26 21:48:00,
2013-04-26 16:53:00,73.9,59.2,30.09,ENE,60,0.0,0.0,60,0.00,,SKC,0.00,VWS V13.01,2013-04-26 21:53:00,
2013-04-26 16:58:00,73.9,59.2,30.09,ENE,60,0.0,0.0,60,0.00,,SKC,0.00,VWS V13.01,2013-04-26 21:58:00,
2013-04-26 17:03:00,73.8,59.0,30.09,ENE,60,0.0,0.0,60,0.00,,SKC,0.00,VWS V13.01,2013-04-26 22:03:00,
2013-04-26 17:08:00,73.6,58.8,30.09,ENE,60,0.0,0.0,60,0.00,,SKC,0.00,VWS V13.01,2013-04-26 22:08:00,
2013-04-26 17:13:00,73.6,58.8,30.09,ENE,60,0.0,0.0,60,0.00,,SKC,0.00,VWS V13.01,2013-04-26 22:13:00,
2013-04-26 17:18:00,73.4,58.7,30.09,ENE,60,0.0,0.0,60,0.00,,SKC,0.00,VWS V13.01,2013-04-26 22:18:00,
2013-04-26 17:23:00,73.6,58.8,30.09,ENE,60,0.0,0.0,60,0.00,,SKC,0.00,VWS V13.01,2013-04-26 22:23:00,
2013-04-26 17:28:00,73.2,58.5,30.09,ENE,60,0.0,0.0,60,0.00,,SKC,0.00,VWS V13.01,2013-04-26 22:28:00,
2013-04-26 17:33:00,73.4,58.7,30.09,ENE,60,0.0,0.0,60,0.00,,SKC,0.00,VWS V13.01,2013-04-26 22:33:00,
2013-04-26 17:38:00,73.9,59.2,30.09,ENE,60,0.0,0.0,60,0.00,,SKC,0.00,VWS V13.01,2013-04-26 22:38:00,
2013-04-26 17:43:00,74.1,59.4,30.09,ENE,60,0.0,0.0,60,0.00,,SKC,0.00,VWS V13.01,2013-04-26 22:43:00,
2013-04-26 17:48:00,73.9,59.2,30.09,ENE,60,0.0,0.0,60,0.00,,SKC,0.00,VWS V13.01,2013-04-26 22:48:00,
2013-04-26 17:53:00,73.8,59.0,30.09,ENE,60,0.0,0.0,60,0.00,,SKC,0.00,VWS V13.01,2013-04-26 22:53:00,
2013-04-26 17:58:00,73.9,59.2,30.09,ENE,60,0.0,0.0,60,0.00,,SKC,0.00,VWS V13.01,2013-04-26 22:58:00,
2013-04-26 18:03:00,74.1,59.4,30.09,ENE,60,0.0,0.0,60,0.00,,SKC,0.00,VWS V13.01,2013-04-26 23:03:00,
2013-04-26 18:08:00,74.1,59.4,30.09,ENE,60,0.0,0.0,60,0.00,,SKC,0.00,VWS V13.01,2013-04-26 23:08:00,
2013-04-26 18:13:00,73.9,59.2,30.09,ENE,60,0.0,0.0,60,0.00,,SKC,0.00,VWS V13.01,2013-04-26 23:13:00,
2013-04-26 18:18:00,73.4,58.7,30.09,ENE,60,0.0,0.0,60,0.00,,SKC,0.00,VWS V13.01,2013-04-26 23:18:00,
2013-04-26 18:23:00,73.0,59.7,30.09,ENE,60,0.0,0.0,63,0.00,,SKC,0.00,VWS V13.01,2013-04-26 23:23:00,
2013-04-26 18:28:00,72.9,59.5,30.09,ENE,60,0.0,0.0,63,0.00,,SKC,0.00,VWS V13.01,2013-04-26 23:28:00,
2013-04-26 18:33:00,72.9,59.5,30.09,ENE,60,0.0,0.0,63,0.00,,SKC,0.00,VWS V13.01,2013-04-26 23:33:00,
2013-04-26 18:38:00,72.9,59.5,30.09,ENE,60,0.0,0.0,63,0.00,,SKC,0.00,VWS V13.01,2013-04-26 23:38:00,
2013-04-26 18:43:00,72.7,59.4,30.09,ENE,60,0.0,0.0,63,0.00,,SKC,0.00,VWS V13.01,2013-04-26 23:43:00,
2013-04-26 18:48:00,72.5,59.2,30.09,ENE,60,0.0,0.0,63,0.00,,SKC,0.00,VWS V13.01,2013-04-26 23:48:00,
2013-04-26 18:53:00,72.1,58.9,30.09,ENE,60,0.0,0.0,63,0.00,,SKC,0.00,VWS V13.01,2013-04-26 23:53:00,
2013-04-26 19:05:00,71.6,59.2,30.09,ENE,60,0.0,0.0,65,0.00,,SKC,0.00,VWS V13.01,2013-04-27 00:05:00,
2013-04-26 19:10:00,71.4,59.5,30.09,ENE,60,0.0,0.0,66,0.00,,SKC,0.00,VWS V13.01,2013-04-27 00:10:00,
2013-04-26 19:15:00,71.4,59.5,30.09,ENE,60,0.0,0.0,66,0.00,,SKC,0.00,VWS V13.01,2013-04-27 00:15:00,
2013-04-26 19:20:00,71.4,59.5,30.09,ENE,60,0.0,0.0,66,0.00,,SKC,0.00,VWS V13.01,2013-04-27 00:20:00,
2013-04-26 19:25:00,71.4,59.5,30.09,ENE,60,0.0,0.0,66,0.00,,SKC,0.00,VWS V13.01,2013-04-27 00:25:00,
2013-04-26 19:30:00,71.4,59.5,30.09,ENE,60,0.0,0.0,66,0.00,,SKC,0.00,VWS V13.01,2013-04-27 00:30:00,
2013-04-26 19:35:00,71.1,59.6,30.09,ENE,60,0.0,0.0,67,0.00,,SKC,0.00,VWS V13.01,2013-04-27 00:35:00,
2013-04-26 19:40:00,71.1,59.6,30.09,ENE,60,0.0,0.0,67,0.00,,SKC,0.00,VWS V13.01,2013-04-27 00:40:00,
2013-04-26 19:45:00,70.9,59.8,30.09,ENE,60,0.0,0.0,68,0.00,,SKC,0.00,VWS V13.01,2013-04-27 00:45:00,
2013-04-26 19:50:00,70.9,59.8,30.09,ENE,60,0.0,0.0,68,0.00,,SKC,0.00,VWS V13.01,2013-04-27 00:50:00,
2013-04-26 19:55:00,70.9,60.2,30.09,ENE,60,0.0,0.0,69,0.00,,SKC,0.00,VWS V13.01,2013-04-27 00:55:00,
2013-04-26 20:00:00,70.9,60.2,30.09,ENE,60,0.0,0.0,69,0.00,,SKC,0.00,VWS V13.01,2013-04-27 01:00:00,
2013-04-26 20:05:00,70.9,60.2,30.09,ENE,60,0.0,0.0,69,0.00,,SKC,0.00,VWS V13.01,2013-04-27 01:05:00,
2013-04-26 20:10:00,70.9,60.2,30.09,ENE,60,0.0,0.0,69,0.00,,SKC,0.00,VWS V13.01,2013-04-27 01:10:00,
2013-04-26 20:15:00,70.9,60.2,30.09,ENE,60,0.0,0.0,69,0.00,,SKC,0.00,VWS V13.01,2013-04-27 01:15:00,
2013-04-26 20:20:00,70.9,60.2,30.09,ENE,60,0.0,0.0,69,0.00,,SKC,0.00,VWS V13.01,2013-04-27 01:20:00,
2013-04-26 20:25:00,70.9,60.2,30.09,ENE,60,0.0,0.0,69,0.00,,SKC,0.00,VWS V13.01,2013-04-27 01:25:00,
2013-04-26 20:30:00,70.9,60.2,30.09,ENE,60,0.0,0.0,69,0.00,,SKC,0.00,VWS V13.01,2013-04-27 01:30:00,
2013-04-26 20:35:00,70.9,60.2,30.09,ENE,60,0.0,0.0,69,0.00,,SKC,0.00,VWS V13.01,2013-04-27 01:35:00,
2013-04-26 20:40:00,70.7,60.0,30.09,ENE,60,0.0,0.0,69,0.00,,SKC,0.00,VWS V13.01,2013-04-27 01:40:00,
2013-04-26 20:45:00,70.7,60.5,30.09,ENE,60,0.0,0.0,70,0.00,,SKC,0.00,VWS V13.01,2013-04-27 01:45:00,
2013-04-26 20:50:00,70.5,60.3,30.09,ENE,60,0.0,0.0,70,0.00,,SKC,0.00,VWS V13.01,2013-04-27 01:50:00,
2013-04-26 20:55:00,70.5,60.3,30.09,ENE,60,0.0,0.0,70,0.00,,SKC,0.00,VWS V13.01,2013-04-27 01:55:00,
2013-04-26 21:00:00,70.5,60.7,30.09,ENE,60,0.0,0.0,71,0.00,,SKC,0.00,VWS V13.01,2013-04-27 02:00:00,
2013-04-26 21:05:00,70.3,60.5,30.09,ENE,60,0.0,0.0,71,0.00,,SKC,0.00,VWS V13.01,2013-04-27 02:05:00,
2013-04-26 21:10:00,70.3,61.3,30.09,ENE,60,0.0,0.0,73,0.00,,SKC,0.00,VWS V13.01,2013-04-27 02:10:00,
2013-04-26 21:15:00,70.2,61.1,30.09,ENE,60,0.0,0.0,73,0.00,,SKC,0.00,VWS V13.01,2013-04-27 02:15:00,
2013-04-26 21:20:00,70.2,62.2,30.09,ENE,60,0.0,0.0,76,0.00,,SKC,0.00,VWS V13.01,2013-04-27 02:20:00,
2013-04-26 21:25:00,70.0,62.1,30.09,ENE,60,0.0,0.0,76,0.00,,SKC,0.00,VWS V13.01,2013-04-27 02:25:00,
2013-04-26 21:30:00,69.8,61.9,30.09,ENE,60,0.0,0.0,76,0.00,,SKC,0.00,VWS V13.01,2013-04-27 02:30:00,
2013-04-26 21:35:00,69.8,61.9,30.09,ENE,60,0.0,0.0,76,0.00,,SKC,0.00,VWS V13.01,2013-04-27 02:35:00,
2013-04-26 21:40:00,69.6,62.1,30.09,ENE,60,0.0,0.0,77,0.00,,SKC,0.00,VWS V13.01,2013-04-27 02:40:00,
2013-04-26 21:45:00,69.6,62.5,30.09,ENE,60,0.0,0.0,78,0.00,,SKC,0.00,VWS V13.01,2013-04-27 02:45:00,
2013-04-26 21:50:00,69.4,62.3,30.09,ENE,60,0.0,0.0,78,0.00,,SKC,0.00,VWS V13.01,2013-04-27 02:50:00,
2013-04-26 21:55:00,69.4,62.7,30.09,ENE,60,0.0,0.0,79,0.00,,SKC,0.00,VWS V13.01,2013-04-27 02:55:00,
2013-04-26 22:00:00,69.4,62.7,30.09,ENE,60,0.0,0.0,79,0.00,,SKC,0.00,VWS V13.01,2013-04-27 03:00:00,
2013-04-26 22:05:00,69.3,62.5,30.09,ENE,60,0.0,0.0,79,0.00,,SKC,0.00,VWS V13.01,2013-04-27 03:05:00,
2013-04-26 22:10:00,69.3,62.5,30.09,ENE,60,0.0,0.0,79,0.00,,SKC,0.00,VWS V13.01,2013-04-27 03:10:00,
2013-04-26 22:15:00,69.1,62.7,30.09,ENE,60,0.0,0.0,80,0.00,,SKC,0.00,VWS V13.01,2013-04-27 03:15:00,
2013-04-26 22:20:00,69.1,62.7,30.09,ENE,60,0.0,0.0,80,0.00,,SKC,0.00,VWS V13.01,2013-04-27 03:20:00,
2013-04-26 22:25:00,68.9,62.5,30.09,ENE,60,0.0,0.0,80,0.00,,SKC,0.00,VWS V13.01,2013-04-27 03:25:00,
2013-04-26 22:30:00,68.7,62.7,30.09,ENE,60,0.0,0.0,81,0.00,,SKC,0.00,VWS V13.01,2013-04-27 03:30:00,
2013-04-26 22:35:00,68.5,62.8,30.09,ENE,60,0.0,0.0,82,0.00,,SKC,0.00,VWS V13.01,2013-04-27 03:35:00,
2013-04-26 22:40:00,68.2,62.5,30.09,ENE,60,0.0,0.0,82,0.00,,SKC,0.00,VWS V13.01,2013-04-27 03:40:00,
2013-04-26 22:45:00,68.0,62.3,30.09,ENE,60,0.0,0.0,82,0.00,,SKC,0.00,VWS V13.01,2013-04-27 03:45:00,
2013-04-26 22:50:00,68.0,62.7,30.09,ENE,60,0.0,0.0,83,0.00,,SKC,0.00,VWS V13.01,2013-04-27 03:50:00,
2013-04-26 22:55:00,68.0,62.7,30.09,ENE,60,0.0,0.0,83,0.00,,SKC,0.00,VWS V13.01,2013-04-27 03:55:00,
2013-04-26 23:00:00,67.8,62.8,30.09,ENE,60,0.0,0.0,84,0.00,,SKC,0.00,VWS V13.01,2013-04-27 04:00:00,
2013-04-26 23:01:00,67.8,63.5,30.09,ENE,60,0.0,0.0,86,0.00,,SKC,0.00,VWS V13.01,2013-04-27 04:01:00,
2013-04-26 23:06:00,67.8,64.1,30.09,ENE,60,0.0,0.0,88,0.00,,SKC,0.00,VWS V13.01,2013-04-27 04:06:00,
2013-04-26 23:11:00,67.6,64.0,30.09,ENE,60,0.0,0.0,88,0.00,,SKC,0.00,VWS V13.01,2013-04-27 04:11:00,
2013-04-26 23:16:00,67.5,64.1,30.09,ENE,60,0.0,0.0,89,0.00,,SKC,0.00,VWS V13.01,2013-04-27 04:16:00,
2013-04-26 23:21:00,67.3,64.2,30.09,ENE,60,0.0,0.0,90,0.00,,SKC,0.00,VWS V13.01,2013-04-27 04:21:00,
2013-04-26 23:26:00,67.1,64.4,30.09,ENE,60,0.0,0.0,91,0.00,,SKC,0.00,VWS V13.01,2013-04-27 04:26:00,
2013-04-26 23:31:00,66.9,64.5,30.09,ENE,60,0.0,0.0,92,0.00,,SKC,0.00,VWS V13.01,2013-04-27 04:31:00,
2013-04-26 23:36:00,66.9,64.5,30.09,ENE,60,0.0,0.0,92,0.00,,SKC,0.00,VWS V13.01,2013-04-27 04:36:00,
2013-04-26 23:41:00,66.9,64.5,30.09,ENE,60,0.0,0.0,92,0.00,,SKC,0.00,VWS V13.01,2013-04-27 04:41:00,
2013-04-26 23:46:00,67.1,64.7,30.09,ENE,60,0.0,0.0,92,0.00,,SKC,0.00,VWS V13.01,2013-04-27 04:46:00,
2013-04-26 23:51:00,67.1,64.7,30.09,ENE,60,0.0,0.0,92,0.00,,SKC,0.00,VWS V13.01,2013-04-27 04:51:00,
2013-04-26 23:56:00,67.1,64.7,30.09,ENE,60,0.0,0.0,92,0.00,,SKC,0.00,VWS V13.01,2013-04-27 04:56:00,